This is the latest recevied weather packets stored in our database for station/object N2RDT. If no packets are shown the sender has not sent any weather packets the latest 1 day(s).
| Time | Temp. | Humidity | Pressure | Rain* | Wind** | Luminosity | Snow |
|---|---|---|---|---|---|---|---|
| 1778088617 | 23.33° C | 62% | 1014.6 hPa | 0 mm | - | 491 W/m² | - |
| 1778086800 | 22.22° C | 64% | 1014.6 hPa | 0 mm | - | 435 W/m² | - |
| 1778084978 | 22.78° C | 60% | 1014.7 hPa | 0 mm | - | 467 W/m² | - |
| 1778083466 | 22.22° C | 63% | 1014.9 hPa | 0 mm | - | 385 W/m² | - |
| 1778082861 | 22.22° C | 63% | 1014.9 hPa | 0 mm | - | 341 W/m² | - |
| 1778080835 | 21.11° C | 64% | 1014.6 hPa | 0 mm | - | 232 W/m² | - |
| 1778078411 | 20.56° C | 65% | 1014.7 hPa | 0 mm | - | 340 W/m² | - |
| 1778077504 | 20° C | 68% | 1014.9 hPa | 0 mm | - | 211 W/m² | - |
| 1778077202 | 20° C | 68% | 1015 hPa | 0 mm | - | 208 W/m² | - |
| 1778076598 | 20° C | 68% | 1014.9 hPa | 0 mm | - | 291 W/m² | - |
| 1778075384 | 19.44° C | 70% | 1015.1 hPa | 0 mm | - | 307 W/m² | - |
| 1778074475 | 18.89° C | 72% | 1015.2 hPa | 0 mm | - | 185 W/m² | - |
| 1778071750 | 17.78° C | 77% | 1014.8 hPa | 0 mm | - | 127 W/m² | - |
| 1778071447 | 17.78° C | 77% | 1015 hPa | 0 mm | - | 101 W/m² | - |
| 1778069935 | 17.22° C | 78% | 1014.4 hPa | 0 mm | - | 100 W/m² | - |
| 1778069026 | 17.22° C | 79% | 1014.4 hPa | 0 mm | - | 110 W/m² | - |
| 1778067515 | 16.67° C | 80% | 1014.6 hPa | 0 mm | - | 65 W/m² | - |
| 1778067212 | 16.67° C | 81% | 1014.6 hPa | 0 mm | - | 64 W/m² | - |
| 1778066606 | 16.67° C | 81% | 1014.6 hPa | 0 mm | - | 46 W/m² | - |
| 1778065092 | 16.11° C | 83% | 1014.2 hPa | 0 mm | - | 13 W/m² | - |
| 1778064789 | 16.11° C | 83% | 1014.2 hPa | 0 mm | - | 13 W/m² | - |
| 1778063579 | 15.56° C | 84% | 1014.3 hPa | 0 mm | - | 10 W/m² | - |
| 1778063276 | 16.11° C | 83% | 1014.4 hPa | 0 mm | - | 6 W/m² | - |
| 1778062974 | 15.56° C | 83% | 1014.4 hPa | 0 mm | - | 5 W/m² | - |
| 1778062671 | 15.56° C | 83% | 1014.5 hPa | 0 mm | - | 3 W/m² | - |
* Rain latest hour (hover to see other rain measurements)
** Current wind speed in m/s (hover to see current wind gust speed)